Find Starlink 4162

NORAD ID: 53288 Int'l Des: 2022-086 Owner: SPXS Country: US Constellation: starlink operational
LEOCIRCULAR

Live Position

Loading 3D Globe...

About Starlink 4162

Description loading...

Upcoming Passes

Passes for default location (London). Set your location on the main map for personalized predictions.

Altitude History

Loading altitude history...

Two-Line Element Set

1 53288U 22086AY 26104.16738903 -.00002586 00000-0 -14435-3 0 9997
2 53288 53.2185 24.8562 0001614 89.9064 270.2113 15.08854388206540
Epoch: Apr 14, 2026 • Age: 19 hours

Current Status

Altitude 539.6 km
Velocity 7.60 km/s
Sub-Earth Point 12.83°N, 159.58°W
Launch Date Jul 24, 2022
Age 3.7 years
Type internet

Technical Details

Classification Payload
Mass 297.00 kg
Dry Mass 275.00 kg
Total Mass 297.00 kg
Length 0.20 m
Diameter 2.80 m
Span 9.00 m
Shape Box + pan
Manufacturer SPXS
Bus Type Starlink
Phase Status In Orbit
Owner/State SPXS/US

Most Searched